Time,TemperatureF,DewpointF,PressureIn,WindDirection,WindDirectionDegrees,WindSpeedMPH,WindSpeedGustMPH,Humidity,HourlyPrecipIn,Conditions,Clouds,dailyrainin,SoftwareType,DateUTC
2013-03-15 00:02:00,57.0,41.0,30.06,West,260,4.0,6.0,55,-99.99,,,-99.99,,2013-03-15 05:02:00,
2013-03-15 00:12:00,56.0,41.0,30.06,WSW,250,5.0,7.0,56,-99.99,,,-99.99,,2013-03-15 05:12:00,
2013-03-15 00:22:00,56.0,41.0,30.06,WSW,250,5.0,7.0,56,-99.99,,,-99.99,,2013-03-15 05:22:00,
2013-03-15 00:32:00,59.0,41.0,30.06,West,265,4.0,7.0,51,-99.99,,,-99.99,,2013-03-15 05:32:00,
2013-03-15 00:42:00,60.0,41.0,30.05,West,265,6.0,8.0,49,-99.99,,,-99.99,,2013-03-15 05:42:00,
2013-03-15 00:52:00,60.0,41.0,30.05,West,265,6.0,8.0,49,-99.99,,,-99.99,,2013-03-15 05:52:00,
2013-03-15 01:02:00,61.0,41.0,30.05,WNW,285,5.0,10.0,47,-99.99,,,-99.99,,2013-03-15 06:02:00,
2013-03-15 01:12:00,61.0,41.0,30.05,West,265,6.0,8.0,47,-99.99,,,-99.99,,2013-03-15 06:12:00,
2013-03-15 01:22:00,61.0,41.0,30.05,West,265,6.0,8.0,47,-99.99,,,-99.99,,2013-03-15 06:22:00,
2013-03-15 01:32:00,60.0,40.0,30.04,West,265,6.0,10.0,48,-99.99,,,-99.99,,2013-03-15 06:32:00,
2013-03-15 01:42:00,61.0,40.0,30.03,West,270,6.0,10.0,47,-99.99,,,-99.99,,2013-03-15 06:42:00,
2013-03-15 01:52:00,61.0,40.0,30.03,West,270,6.0,10.0,47,-99.99,,,-99.99,,2013-03-15 06:52:00,
2013-03-15 02:02:00,60.0,40.0,30.03,West,275,6.0,10.0,48,-99.99,,,-99.99,,2013-03-15 07:02:00,
2013-03-15 02:12:00,60.0,40.0,30.03,West,275,5.0,10.0,48,-99.99,,,-99.99,,2013-03-15 07:12:00,
2013-03-15 02:22:00,60.0,40.0,30.03,West,275,5.0,10.0,48,-99.99,,,-99.99,,2013-03-15 07:22:00,
2013-03-15 02:30:00,59.0,41.0,30.02,West,260,7.0,11.0,51,-99.99,,,-99.99,,2013-03-15 07:30:00,
2013-03-15 02:32:00,59.0,40.0,30.03,West,260,5.0,9.0,48,-99.99,,,-99.99,,2013-03-15 07:32:00,
2013-03-15 02:42:00,59.0,40.0,30.03,West,260,6.0,9.0,50,-99.99,,,-99.99,,2013-03-15 07:42:00,
2013-03-15 02:52:00,59.0,40.0,30.03,West,260,6.0,9.0,50,-99.99,,,-99.99,,2013-03-15 07:52:00,
2013-03-15 03:02:00,56.0,40.0,30.02,WSW,255,7.0,11.0,54,-99.99,,,-99.99,,2013-03-15 08:02:00,
2013-03-15 03:12:00,59.0,41.0,30.02,West,260,7.0,11.0,51,-99.99,,,-99.99,,2013-03-15 08:12:00,
2013-03-15 03:23:00,59.0,41.0,30.02,West,260,7.0,11.0,51,-99.99,,,-99.99,,2013-03-15 08:23:00,
2013-03-15 03:42:00,56.0,40.0,30.01,WSW,250,7.0,9.0,56,-99.99,,,-99.99,,2013-03-15 08:42:00,
2013-03-15 03:52:00,56.0,40.0,30.01,WSW,250,7.0,9.0,56,-99.99,,,-99.99,,2013-03-15 08:52:00,
2013-03-15 04:02:00,58.0,41.0,30.00,WSW,255,7.0,10.0,53,-99.99,,,-99.99,,2013-03-15 09:02:00,
2013-03-15 04:12:00,58.0,41.0,30.00,West,260,7.0,11.0,52,-99.99,,,-99.99,,2013-03-15 09:12:00,
2013-03-15 04:22:00,58.0,41.0,30.00,West,260,7.0,11.0,52,-99.99,,,-99.99,,2013-03-15 09:22:00,
2013-03-15 04:33:00,58.0,41.0,29.99,West,280,8.0,14.0,52,-99.99,,,-99.99,,2013-03-15 09:33:00,
2013-03-15 04:43:00,59.0,41.0,29.99,WNW,285,12.0,17.0,52,-99.99,,,-99.99,,2013-03-15 09:43:00,
2013-03-15 04:52:00,59.0,41.0,29.99,WNW,285,12.0,17.0,52,-99.99,,,-99.99,,2013-03-15 09:52:00,
2013-03-15 05:03:00,58.0,41.0,29.98,WNW,285,9.0,15.0,54,-99.99,,,-99.99,,2013-03-15 10:03:00,
2013-03-15 05:12:00,58.0,42.0,29.98,West,280,8.0,13.0,55,-99.99,,,-99.99,,2013-03-15 10:12:00,
2013-03-15 05:23:00,58.0,42.0,29.98,West,280,8.0,13.0,55,-99.99,,,-99.99,,2013-03-15 10:23:00,
2013-03-15 05:33:00,56.0,41.0,29.98,NW,315,4.0,11.0,57,-99.99,,,-99.99,,2013-03-15 10:33:00,
2013-03-15 05:42:00,56.0,41.0,29.97,WNW,295,6.0,11.0,58,-99.99,,,-99.99,,2013-03-15 10:42:00,
2013-03-15 05:52:00,56.0,41.0,29.97,WNW,295,6.0,11.0,58,-99.99,,,-99.99,,2013-03-15 10:52:00,
2013-03-15 06:03:00,55.0,41.0,29.97,WSW,255,8.0,13.0,59,-99.99,,,-99.99,,2013-03-15 11:03:00,
2013-03-15 06:12:00,55.0,41.0,29.97,WSW,255,7.0,14.0,60,-99.99,,,-99.99,,2013-03-15 11:12:00,
2013-03-15 06:22:00,55.0,41.0,29.97,WSW,255,7.0,14.0,60,-99.99,,,-99.99,,2013-03-15 11:22:00,
2013-03-15 06:32:00,55.0,41.0,29.97,WNW,285,7.0,13.0,59,-99.99,,,-99.99,,2013-03-15 11:32:00,
2013-03-15 06:42:00,56.0,41.0,29.97,West,260,9.0,15.0,59,-99.99,,,-99.99,,2013-03-15 11:42:00,
2013-03-15 06:52:00,56.0,41.0,29.97,West,260,9.0,15.0,59,-99.99,,,-99.99,,2013-03-15 11:52:00,
2013-03-15 07:02:00,55.0,42.0,29.96,WSW,255,9.0,14.0,60,-99.99,,,-99.99,,2013-03-15 12:02:00,
2013-03-15 07:12:00,55.0,42.0,29.96,WSW,255,9.0,12.0,60,-99.99,,,-99.99,,2013-03-15 12:12:00,
2013-03-15 07:23:00,55.0,42.0,29.96,WSW,255,9.0,12.0,60,-99.99,,,-99.99,,2013-03-15 12:23:00,
2013-03-15 07:32:00,55.0,42.0,29.96,West,265,8.0,12.0,60,-99.99,,,-99.99,,2013-03-15 12:32:00,
2013-03-15 07:42:00,55.0,42.0,29.96,WSW,245,8.0,14.0,61,-99.99,,,-99.99,,2013-03-15 12:42:00,
2013-03-15 07:52:00,55.0,42.0,29.96,WSW,245,8.0,14.0,61,-99.99,,,-99.99,,2013-03-15 12:52:00,
2013-03-15 08:02:00,55.0,42.0,29.96,WSW,255,6.0,12.0,62,-99.99,,,-99.99,,2013-03-15 13:02:00,
2013-03-15 08:12:00,55.0,43.0,29.96,WSW,255,9.0,12.0,63,-99.99,,,-99.99,,2013-03-15 13:12:00,
2013-03-15 08:22:00,55.0,43.0,29.96,WSW,255,9.0,12.0,63,-99.99,,,-99.99,,2013-03-15 13:22:00,
2013-03-15 08:32:00,57.0,43.0,29.96,WSW,250,9.0,16.0,60,-99.99,,,-99.99,,2013-03-15 13:32:00,
2013-03-15 08:42:00,57.0,43.0,29.96,West,260,10.0,17.0,59,-99.99,,,-99.99,,2013-03-15 13:42:00,
2013-03-15 08:52:00,57.0,43.0,29.96,West,260,10.0,17.0,59,-99.99,,,-99.99,,2013-03-15 13:52:00,
2013-03-15 09:02:00,58.0,44.0,29.96,WSW,250,11.0,18.0,58,-99.99,,,-99.99,,2013-03-15 14:02:00,
2013-03-15 09:12:00,59.0,44.0,29.95,West,260,11.0,16.0,58,-99.99,,,-99.99,,2013-03-15 14:12:00,
2013-03-15 09:22:00,59.0,44.0,29.95,West,260,11.0,16.0,58,-99.99,,,-99.99,,2013-03-15 14:22:00,
2013-03-15 09:32:00,60.0,45.0,29.95,WSW,250,13.0,19.0,57,-99.99,,,-99.99,,2013-03-15 14:32:00,
2013-03-15 09:42:00,61.0,45.0,29.95,WSW,245,14.0,20.0,57,-99.99,,,-99.99,,2013-03-15 14:42:00,
2013-03-15 09:50:00,64.0,46.0,29.93,West,260,11.0,19.0,52,-99.99,,,-99.99,,2013-03-15 14:50:00,
2013-03-15 09:52:00,61.0,45.0,29.95,WSW,245,14.0,20.0,57,-99.99,,,-99.99,,2013-03-15 14:52:00,
2013-03-15 10:02:00,62.0,45.0,29.94,WSW,255,13.0,19.0,54,-99.99,,,-99.99,,2013-03-15 15:02:00,
2013-03-15 10:13:00,63.0,46.0,29.94,WSW,245,14.0,22.0,53,-99.99,,,-99.99,,2013-03-15 15:13:00,
2013-03-15 10:20:00,66.0,47.0,29.92,WSW,250,13.0,23.0,51,-99.99,,,-99.99,,2013-03-15 15:20:00,
2013-03-15 10:23:00,63.0,46.0,29.94,WSW,245,14.0,22.0,53,-99.99,,,-99.99,,2013-03-15 15:23:00,
2013-03-15 10:33:00,64.0,46.0,29.93,West,260,11.0,19.0,52,-99.99,,,-99.99,,2013-03-15 15:33:00,
2013-03-15 10:42:00,64.0,46.0,29.93,West,260,11.0,19.0,52,-99.99,,,-99.99,,2013-03-15 15:42:00,
2013-03-15 11:00:00,69.0,46.0,29.90,WSW,245,17.0,22.0,44,-99.99,,,-99.99,,2013-03-15 16:00:00,
2013-03-15 11:03:00,66.0,47.0,29.92,WSW,250,13.0,23.0,51,-99.99,,,-99.99,,2013-03-15 16:03:00,
2013-03-15 11:12:00,66.0,47.0,29.92,WSW,250,13.0,23.0,51,-99.99,,,-99.99,,2013-03-15 16:12:00,
2013-03-15 11:32:00,68.0,47.0,29.91,WSW,255,15.0,22.0,46,-99.99,,,-99.99,,2013-03-15 16:32:00,
2013-03-15 11:42:00,69.0,46.0,29.90,WSW,245,17.0,22.0,44,-99.99,,,-99.99,,2013-03-15 16:42:00,
2013-03-15 11:52:00,69.0,46.0,29.90,WSW,245,17.0,22.0,44,-99.99,,,-99.99,,2013-03-15 16:52:00,
2013-03-15 12:12:00,71.0,46.0,29.89,WSW,255,14.0,19.0,41,-99.99,,,-99.99,,2013-03-15 17:12:00,
2013-03-15 12:22:00,71.0,46.0,29.89,WSW,255,14.0,19.0,41,-99.99,,,-99.99,,2013-03-15 17:22:00,
2013-03-15 12:32:00,72.0,47.0,29.88,West,270,13.0,18.0,40,-99.99,,,-99.99,,2013-03-15 17:32:00,
2013-03-15 12:42:00,74.0,46.0,29.88,West,270,9.0,16.0,37,-99.99,,,-99.99,,2013-03-15 17:42:00,
2013-03-15 12:52:00,74.0,46.0,29.88,West,270,9.0,16.0,37,-99.99,,,-99.99,,2013-03-15 17:52:00,
2013-03-15 13:02:00,74.0,46.0,29.88,WSW,250,14.0,19.0,37,-99.99,,,-99.99,,2013-03-15 18:02:00,
2013-03-15 13:12:00,76.0,48.0,29.87,WSW,255,12.0,19.0,37,-99.99,,,-99.99,,2013-03-15 18:12:00,
2013-03-15 13:22:00,76.0,48.0,29.87,WSW,255,12.0,19.0,37,-99.99,,,-99.99,,2013-03-15 18:22:00,
2013-03-15 13:32:00,76.0,47.0,29.86,WSW,245,16.0,23.0,36,-99.99,,,-99.99,,2013-03-15 18:32:00,
2013-03-15 13:42:00,76.0,47.0,29.86,WSW,255,12.0,21.0,35,-99.99,,,-99.99,,2013-03-15 18:42:00,
2013-03-15 13:52:00,76.0,47.0,29.86,WSW,255,12.0,21.0,35,-99.99,,,-99.99,,2013-03-15 18:52:00,
2013-03-15 14:02:00,78.0,46.0,29.85,WNW,290,10.0,17.0,33,-99.99,,,-99.99,,2013-03-15 19:02:00,
2013-03-15 14:12:00,78.0,46.0,29.84,WSW,255,12.0,16.0,33,-99.99,,,-99.99,,2013-03-15 19:12:00,
2013-03-15 14:22:00,78.0,46.0,29.84,WSW,255,12.0,16.0,33,-99.99,,,-99.99,,2013-03-15 19:22:00,
2013-03-15 14:32:00,78.0,46.0,29.83,West,260,12.0,21.0,32,-99.99,,,-99.99,,2013-03-15 19:32:00,
2013-03-15 14:42:00,79.0,46.0,29.82,WSW,245,20.0,25.0,31,-99.99,,,-99.99,,2013-03-15 19:42:00,
2013-03-15 14:52:00,79.0,46.0,29.82,WSW,245,20.0,25.0,31,-99.99,,,-99.99,,2013-03-15 19:52:00,
2013-03-15 15:02:00,80.0,46.0,29.81,WSW,250,17.0,23.0,30,-99.99,,,-99.99,,2013-03-15 20:02:00,
2013-03-15 15:12:00,80.0,45.0,29.80,West,280,16.0,24.0,30,-99.99,,,-99.99,,2013-03-15 20:12:00,
2013-03-15 15:22:00,80.0,45.0,29.80,West,280,16.0,24.0,30,-99.99,,,-99.99,,2013-03-15 20:22:00,
2013-03-15 15:32:00,80.0,46.0,29.79,West,280,13.0,29.0,30,-99.99,,,-99.99,,2013-03-15 20:32:00,
2013-03-15 15:42:00,80.0,44.0,29.79,WSW,255,18.0,29.0,28,-99.99,,,-99.99,,2013-03-15 20:42:00,
2013-03-15 15:52:00,80.0,44.0,29.79,WSW,255,18.0,29.0,28,-99.99,,,-99.99,,2013-03-15 20:52:00,
2013-03-15 16:02:00,81.0,46.0,29.77,WSW,255,10.0,24.0,30,-99.99,,,-99.99,,2013-03-15 21:02:00,
2013-03-15 16:12:00,80.0,44.0,29.77,WSW,255,21.0,27.0,28,-99.99,,,-99.99,,2013-03-15 21:12:00,
2013-03-15 16:22:00,80.0,44.0,29.77,WSW,255,21.0,27.0,28,-99.99,,,-99.99,,2013-03-15 21:22:00,
2013-03-15 16:33:00,79.0,43.0,29.76,WSW,255,15.0,25.0,28,-99.99,,,-99.99,,2013-03-15 21:33:00,
2013-03-15 16:43:00,79.0,43.0,29.76,WSW,250,14.0,29.0,28,-99.99,,,-99.99,,2013-03-15 21:43:00,
2013-03-15 16:52:00,79.0,43.0,29.76,WSW,250,14.0,29.0,28,-99.99,,,-99.99,,2013-03-15 21:52:00,
2013-03-15 17:03:00,80.0,44.0,29.75,West,270,17.0,23.0,28,-99.99,,,-99.99,,2013-03-15 22:03:00,
2013-03-15 17:13:00,80.0,44.0,29.75,WSW,255,14.0,23.0,28,-99.99,,,-99.99,,2013-03-15 22:13:00,
2013-03-15 17:22:00,80.0,44.0,29.75,WSW,255,14.0,23.0,28,-99.99,,,-99.99,,2013-03-15 22:22:00,
2013-03-15 17:32:00,80.0,44.0,29.75,WSW,255,12.0,19.0,28,-99.99,,,-99.99,,2013-03-15 22:32:00,
2013-03-15 17:42:00,80.0,43.0,29.74,WSW,250,13.0,20.0,27,-99.99,,,-99.99,,2013-03-15 22:42:00,
2013-03-15 17:52:00,80.0,43.0,29.74,WSW,250,13.0,20.0,27,-99.99,,,-99.99,,2013-03-15 22:52:00,
2013-03-15 18:02:00,80.0,43.0,29.74,WSW,250,11.0,15.0,27,-99.99,,,-99.99,,2013-03-15 23:02:00,
2013-03-15 18:12:00,79.0,43.0,29.73,WSW,255,13.0,21.0,28,-99.99,,,-99.99,,2013-03-15 23:12:00,
2013-03-15 18:22:00,79.0,43.0,29.73,WSW,255,13.0,21.0,28,-99.99,,,-99.99,,2013-03-15 23:22:00,
2013-03-15 18:32:00,78.0,43.0,29.73,West,260,13.0,19.0,28,-99.99,,,-99.99,,2013-03-15 23:32:00,
2013-03-15 18:42:00,78.0,42.0,29.73,WSW,255,14.0,23.0,28,-99.99,,,-99.99,,2013-03-15 23:42:00,
2013-03-15 18:52:00,78.0,42.0,29.73,WSW,255,14.0,23.0,28,-99.99,,,-99.99,,2013-03-15 23:52:00,
2013-03-15 19:02:00,78.0,42.0,29.73,West,260,12.0,15.0,28,-99.99,,,-99.99,,2013-03-16 00:02:00,
2013-03-15 19:12:00,77.0,42.0,29.73,WSW,255,11.0,16.0,29,-99.99,,,-99.99,,2013-03-16 00:12:00,
2013-03-15 19:22:00,77.0,42.0,29.73,WSW,255,11.0,16.0,29,-99.99,,,-99.99,,2013-03-16 00:22:00,
2013-03-15 19:32:00,76.0,43.0,29.73,WSW,255,10.0,15.0,31,-99.99,,,-99.99,,2013-03-16 00:32:00,
2013-03-15 19:42:00,75.0,43.0,29.72,WSW,250,10.0,15.0,31,-99.99,,,-99.99,,2013-03-16 00:42:00,
2013-03-15 19:52:00,75.0,43.0,29.72,WSW,250,10.0,15.0,31,-99.99,,,-99.99,,2013-03-16 00:52:00,
2013-03-15 20:02:00,74.0,43.0,29.72,WSW,250,11.0,13.0,33,-99.99,,,-99.99,,2013-03-16 01:02:00,
2013-03-15 20:12:00,74.0,44.0,29.72,WSW,250,11.0,13.0,34,-99.99,,,-99.99,,2013-03-16 01:12:00,
2013-03-15 20:21:00,74.0,44.0,29.72,WSW,250,11.0,13.0,34,-99.99,,,-99.99,,2013-03-16 01:21:00,
2013-03-15 20:32:00,72.0,43.0,29.72,WSW,245,10.0,12.0,35,-99.99,,,-99.99,,2013-03-16 01:32:00,
2013-03-15 20:42:00,72.0,44.0,29.73,WSW,250,12.0,13.0,36,-99.99,,,-99.99,,2013-03-16 01:42:00,
2013-03-15 20:52:00,72.0,44.0,29.73,WSW,250,12.0,13.0,36,-99.99,,,-99.99,,2013-03-16 01:52:00,
2013-03-15 21:02:00,73.0,43.0,29.73,West,265,8.0,12.0,35,-99.99,,,-99.99,,2013-03-16 02:02:00,
2013-03-15 21:12:00,72.0,44.0,29.72,WSW,250,11.0,13.0,36,-99.99,,,-99.99,,2013-03-16 02:12:00,
2013-03-15 21:23:00,72.0,44.0,29.72,WSW,250,11.0,13.0,36,-99.99,,,-99.99,,2013-03-16 02:23:00,
2013-03-15 21:32:00,70.0,44.0,29.72,WSW,250,7.0,13.0,39,-99.99,,,-99.99,,2013-03-16 02:32:00,
2013-03-15 21:42:00,69.0,44.0,29.73,WSW,250,9.0,11.0,41,-99.99,,,-99.99,,2013-03-16 02:42:00,
2013-03-15 21:52:00,69.0,44.0,29.73,WSW,250,9.0,11.0,41,-99.99,,,-99.99,,2013-03-16 02:52:00,
2013-03-15 22:02:00,70.0,44.0,29.72,WSW,255,11.0,15.0,40,-99.99,,,-99.99,,2013-03-16 03:02:00,
2013-03-15 22:12:00,69.0,44.0,29.72,WSW,245,10.0,13.0,41,-99.99,,,-99.99,,2013-03-16 03:12:00,
2013-03-15 22:22:00,69.0,44.0,29.72,WSW,245,10.0,13.0,41,-99.99,,,-99.99,,2013-03-16 03:22:00,
2013-03-15 22:32:00,70.0,44.0,29.72,WSW,250,12.0,19.0,39,-99.99,,,-99.99,,2013-03-16 03:32:00,
2013-03-15 22:43:00,68.0,44.0,29.72,SW,235,10.0,17.0,42,-99.99,,,-99.99,,2013-03-16 03:43:00,
2013-03-15 22:52:00,68.0,44.0,29.72,SW,235,10.0,17.0,42,-99.99,,,-99.99,,2013-03-16 03:52:00,
2013-03-15 23:02:00,68.0,44.0,29.72,WSW,245,11.0,15.0,42,-99.99,,,-99.99,,2013-03-16 04:02:00,
2013-03-15 23:13:00,69.0,45.0,29.72,WSW,240,15.0,20.0,41,-99.99,,,-99.99,,2013-03-16 04:13:00,
2013-03-15 23:23:00,69.0,45.0,29.72,WSW,240,15.0,20.0,41,-99.99,,,-99.99,,2013-03-16 04:23:00,
2013-03-15 23:33:00,69.0,44.0,29.71,WSW,245,14.0,23.0,40,-99.99,,,-99.99,,2013-03-16 04:33:00,
2013-03-15 23:43:00,69.0,44.0,29.71,WSW,240,13.0,16.0,41,-99.99,,,-99.99,,2013-03-16 04:43:00,
2013-03-15 23:52:00,69.0,44.0,29.71,WSW,240,13.0,16.0,41,-99.99,,,-99.99,,2013-03-16 04:52:00,